Вернуться в каталог

COSMOS 2251 DEB

АктивенLEO
NORAD 34755·DEBRIS·🇷🇺 Russia

Запущен Jun 16, 1993 с Plesetsk Cosmodrome

Loading…

Ближайшие Пролёты (ближайшие 24 часа)

TLE

УстаревающийSource: Space-Track

Эпоха: Sep 11, 2026, 07:48 UTC

1 34755U 93036ZZ  26254.32524546  .00000395  00000-0  38529-3 0  9992
2 34755  73.9228 211.7195 0405330 181.5734 331.4552 13.51003672862048

Отслеживайте COSMOS 2251 DEB в реальном времени с AllMySat

Download on the App Store